Regional Weather Roundup
Issued by NWS Sioux Falls, SD

Home | Current Version | Previous Version | Text Only | Print | Product List | Glossary Off
Versions: 1 2 3 4 5 6 7 8 9 10 11 12 13 14 15 16 17 18 19 20 21 22 23 24 25 26 27 28 29 30 31 32 33 34 35 36 37 38 39 40 41 42 43 44 45 46 47 48 49 50

000
ASUS43 KFSD 252002
RWRFSD

WEATHER ROUNDUP FOR SE SOUTH DAKOTA/SW MINNESOTA/NW IOWA
NATIONAL WEATHER SERVICE SIOUX FALLS SD
200 PM CST THU DEC 25 2014

NOTE: "FAIR" INDICATES FEW OR NO CLOUDS BELOW 12,000 FEET WITH NO
SIGNIFICANT WEATHER AND OR OBSTRUCTIONS TO VISIBILITY.


SDZ038>040-050-052>070-252100-
SOUTHEAST SOUTH DAKOTA

CITY           SKY/WX    TMP DP  RH WIND       PRES   REMARKS
CHAMBERLAIN    NOT AVBL
HURON          LGT SNOW  29  26  89 N17       29.72S VSB 1   WCI  17
MADISON        CLOUDY    32  32 100 NE14      29.67S WCI  22
MITCHELL       CLOUDY    33  31  92 N16       29.68S WCI  23
SIOUX FALLS    CLOUDY    36  29  75 NE17      29.64F
WINNER         LGT SNOW  31  28  89 N21       29.67R FOG     WCI  18
YANKTON        MOSUNNY   37  28  70 NE12      29.62R
$$

MNZ071-072-080-081-089-090-097-098-252100-
SOUTHWEST MINNESOTA

CITY           SKY/WX    TMP DP  RH WIND       PRES   REMARKS
FAIRMONT       PTSUNNY   36  28  75 S6        29.70S
JACKSON        PTSUNNY   36  30  80 CALM      29.68F
LUVERNE        MOSUNNY   36  32  87 NE14      29.65S
MARSHALL       CLOUDY    30  27  86 N12       29.72S WCI  21
MONTEVIDEO     LGT SNOW  32  32 100 N5        29.75R WCI  27
PIPESTONE      PTSUNNY   32  30  93 NE9       29.67R WCI  24
REDWOOD FALLS  CLOUDY    33  30  88 N6        29.72R FOG     WCI  28
TRACY          CLOUDY    32  31  94 N8        29.71R FOG     WCI  25
WINDOM         CLOUDY    36  28  75 CALM      29.68F
WORTHINGTON    MOSUNNY   36 -13  12 NE8       29.66F
$$

IAZ001>003-012>014-020>022-031-032-NEZ013-014-SDZ071-252100-
NORTHWEST IOWA

CITY           SKY/WX    TMP DP  RH WIND       PRES   REMARKS
DENISON        SUNNY     45  34  65 VRB7G14   29.61F
ESTHERVILLE    PTSUNNY   36  29  75 S8        29.68S
SIOUX CITY     MOSUNNY   42  31  64 SE13      29.61F
SPENCER        PTSUNNY   37  28  70 SE6       29.66F
$$

ABBREVIATIONS USED IN REMARKS
   TC - TEMPERATURE IN CELSIUS
  WCI - WIND CHILL INDEX
   HX - HEAT INDEX
  VSB - VISIBILITY



USA.gov is the U.S. government's official web portal to all federal, state and local government web resources and services.